This demonstration page uses our WeatherBlox Daily Observations layout. Learn more.

Left ArrowRight Arrow

39.51506, -84.39828

Hourly Observations for October 21, 2020

Temp ( °F °C ) Dew Point ( °F °C ) Humidity (%) Winds ( mph kmh ) Pressure ( in mb ) Visibility ( mi km ) Precip ( " mm )
12:15 am 00:15 Mostly Cloudy with Nearby Thunderstorms 57 14 N/A N/A Calm 30.1 1019 5 8.0467 0 0
12:35 am 00:35 Partly Cloudy with Mist and Fog 55 13 N/A N/A W 3 6 30.09 1019 3.5 5.63269 0 0
12:55 am 00:55 Clear with Nearby Thunderstorms 55 13 N/A N/A WSW 3 6 30.09 1019 4 6.43736 0 0
1:15 am 01:15 Hazy 55 13 N/A N/A SW 5 7 30.08 1019 4 6.43736 0 0
1:35 am 01:35 Mostly Cloudy with Mist and Fog 57 14 N/A N/A W 7 11 30.09 1019 2.5 4.02335 0 0
1:55 am 01:55 Partly Cloudy with Mist and Fog 57 14 N/A N/A SW 3 6 30.09 1019 3 4.82802 0 0
2:15 am 02:15 Hazy 57 14 N/A N/A SSW 3 6 30.09 1019 4 6.43736 0 0
2:35 am 02:35 Hazy 57 14 N/A N/A SW 3 6 30.08 1019 5 8.0467 0 0
5:15 am 05:15 Clear 59 15 N/A N/A WSW 7 11 30.1 1019 10 16.09 0 0
5:35 am 05:35 Clear 60 15.7 60 15.6 99 99 WSW 7 11 30.12 1020 10 16.09 0 0
5:55 am 05:55 Clear 60 15.4 60 15.3 99 99 W 6 9 30.12 1020 10 16.09 0 0
6:15 am 06:15 Partly Cloudy 59 15.2 59 15.1 99 99 W 7 11 30.14 1021 10 16.09 0 0
7:35 am 07:35 Cloudy 62 16.5 61 16.1 98 98 SSW 9 15 30.13 1020 10 16.0934 0 0
7:55 am 07:55 Cloudy 62 16.8 61 16.2 96 96 SW 14 22 30.13 1020 10 16.0934 0 0
8:15 am 08:15 Cloudy 63 17.1 61 16.2 94 94 SW 13 20 30.14 1021 10 16.0934 0 0
8:35 am 08:35 Partly Cloudy 62 16.9 61 16.1 95 95 SW 3 6 30.14 1021 10 16.0934 0 0
8:55 am 08:55 Mostly Cloudy 63 17.2 61 16.2 94 94 Calm 30.14 1021 10 16.0934 0 0
9:15 am 09:15 Cloudy 63 17.3 61 16.2 93 93 SW 8 13 30.16 1021 10 16.0934 0 0
9:35 am 09:35 Mostly Cloudy 64 17.6 62 16.4 93 93 SW 6 9 30.16 1021 10 16.0934 0 0
9:55 am 09:55 Cloudy 65 18.4 62 16.7 90 90 SW 10 17 30.16 1021 10 16.0934 0 0
10:15 am 10:15 Cloudy 66 18.8 62 16.8 88 88 SW 10 17 30.16 1021 10 16.0934 0 0
10:35 am 10:35 Mostly Cloudy 68 19.8 63 17.1 85 85 SW 8 13 30.16 1021 10 16.0934 0 0
10:55 am 10:55 Cloudy 68 19.8 63 17 84 84 WSW 12 19 30.16 1021 10 16.0934 0 0
11:15 am 11:15 Cloudy 68 19.9 62 16.9 83 83 WSW 14 22 30.16 1021 10 16.0934 0 0
11:35 am 11:35 Cloudy 68 19.8 63 17 84 84 WSW 13 20 30.18 1022 10 16.0934 0 0
11:55 am 11:55 Cloudy 68 19.9 63 17 83 83 W 9 15 30.17 1022 10 16.0934 0 0
12:15 pm 12:15 Cloudy 68 19.9 63 17.2 85 85 W 9 15 30.18 1022 10 16.0934 0 0
12:35 pm 12:35 Cloudy 68 20.1 63 17.4 85 85 W 9 15 30.19 1022 10 16.0934 0 0
12:55 pm 12:55 Cloudy 68 19.9 64 17.6 87 87 W 10 17 30.19 1023 10 16.0934 0 0
1:15 pm 13:15 Cloudy 67 19.6 64 18 91 91 WNW 8 13 30.21 1023 10 16.0934 0 0
1:35 pm 13:35 Cloudy with Mist and Fog 67 19.3 65 18.4 95 95 WNW 5 7 30.21 1023 7 11.26538 0 0
1:55 pm 13:55 Cloudy 66 19.1 65 18.2 95 95 WNW 3 6 30.2 1023 10 16.0934 0 0
2:15 pm 14:15 Cloudy 65 18.3 63 17.4 95 95 N 7 11 30.21 1023 10 16.0934 0 0
2:35 pm 14:35 Cloudy with Mist and Fog 63 17.4 63 17 98 98 NNE 5 7 30.21 1023 4 6.43736 0 0
2:55 pm 14:55 Cloudy 63 17.3 63 17.1 99 99 Calm 30.2 1023 10 16.0934 0 0
3:15 pm 15:15 Cloudy with Mist and Fog 63 17.4 63 17 98 98 NE 3 6 30.2 1023 5 8.0467 0 0
3:35 pm 15:35 Cloudy 64 17.9 63 17.2 96 96 Calm 30.19 1022 10 16.0934 0 0
3:55 pm 15:55 Cloudy 65 18.1 62 16.9 93 93 Calm 30.19 1022 10 16.0934 0 0
4:15 pm 16:15 Cloudy 64 17.9 62 16.7 93 93 Calm 30.19 1022 10 16.0934 0 0
4:35 pm 16:35 Cloudy 65 18.1 62 16.8 92 92 E 3 6 30.19 1022 10 16.0934 0 0
4:55 pm 16:55 Cloudy 64 18 62 16.8 93 93 Calm 30.19 1022 10 16.0934 0 0
5:15 pm 17:15 Cloudy 65 18.1 63 17 93 93 Calm 30.18 1022 10 16.0934 0 0
5:35 pm 17:35 Cloudy 65 18.3 63 17 92 92 Calm 30.18 1022 10 16.0934 0 0
5:55 pm 17:55 Mostly Cloudy 65 18.4 62 16.9 91 91 Calm 30.18 1022 10 16.0934 0 0
6:15 pm 18:15 Cloudy 65 18.2 62 16.9 92 92 Calm 30.19 1022 10 16.0934 0 0
6:35 pm 18:35 Mostly Cloudy 64 17.7 62 16.7 94 94 ENE 3 6 30.19 1022 10 16.0934 0 0
6:55 pm 18:55 Cloudy 64 17.6 62 16.9 96 96 Calm 30.19 1022 10 16.0934 0 0
7:15 pm 19:15 Cloudy 64 17.6 62 16.9 96 96 Calm 30.2 1023 10 16.0934 0 0
7:35 pm 19:35 Cloudy 64 17.6 62 16.9 96 96 ENE 5 7 30.19 1022 7 11.26538 0 0
7:55 pm 19:55 Cloudy 64 17.5 62 16.8 96 96 NE 5 7 30.2 1023 10 16.0934 0 0
8:15 pm 20:15 Cloudy 63 17.2 62 16.6 96 96 ENE 3 6 30.2 1023 10 16.0934 0 0
8:35 pm 20:35 Cloudy 63 17.1 62 16.6 97 97 ENE 3 6 30.2 1023 10 16.0934 0 0
8:55 pm 20:55 Cloudy 62 16.8 62 16.4 98 98 Calm 30.2 1023 10 16.0934 0 0
9:15 pm 21:15 Cloudy 62 16.4 61 16.2 99 99 Calm 30.2 1023 10 16.0934 0 0
9:35 pm 21:35 Cloudy 61 16.2 61 16.1 99 99 Calm 30.2 1023 10 16.0934 0 0
9:55 pm 21:55 Cloudy 61 16 N/A N/A Calm 30.2 1023 7 11.26538 0 0
10:15 pm 22:15 Hazy 61 16 N/A N/A Calm 30.2 1023 7 11.26538 0 0
10:35 pm 22:35 Mostly Cloudy with Fog 59 15 N/A N/A Calm 30.2 1023 0.5 0.80467 0 0
10:55 pm 22:55 Mostly Cloudy with Mist and Fog 57 14 N/A N/A Calm 30.2 1023 0.75 1.207005 0 0
11:15 pm 23:15 Mostly Cloudy with Fog 57 14 N/A N/A Calm 30.2 1023 0.25 0.402335 0 0
11:35 pm 23:35 Mostly Cloudy with Fog 57 14 N/A N/A Calm 30.2 1023 0.5 0.80467 0 0
11:55 pm 23:55 Mostly Cloudy with Fog 57 14 N/A N/A Calm 30.19 1022 0.5 0.80467 0 0

Powered by AerisWeather